Weather History for KAPY - August, 2013

Change the Weather History Date:

Thursday, August 8, 2013

  Actual Average (KLRD) Record (KLRD)
Temperature  
Mean Temperature 92 °F 89 °F  
Max Temperature 106 °F 101 °F 108 °F (1940)
Min Temperature 79 °F 77 °F 66 °F (1908)
Degree Days  
Heating Degree Days 0 0  
Month to date heating degree days 0  
Since 1 June heating degree days 0  
Since 1 July heating degree days 0  
Cooling Degree Days 28 24  
Month to date cooling degree days 192  
Year to date cooling degree days 2708  
Since 1 June cooling degree days 1565  
Growing Degree Days 42 (Base 50)    
Moisture  
Dew Point 63 °F    
Average Humidity 46    
Maximum Humidity 75    
Minimum Humidity 13    
Precipitation  
Precipitation 0.00 in 0.03 in 3.38 in (1966)
Month to date precipitation 0.28  
Year to date precipitation 11.39  
Sea Level Pressure  
Sea Level Pressure 29.82 in    
Wind  
Wind Speed 11 mph (SE)    
Max Wind Speed 17 mph    
Max Gust Speed 26 mph    
Visibility 7 miles    
Events      
T = Trace of Precipitation, MM = Missing Value Source: NWS Daily Summary

Daily Weather History Graph

Daily Weather History Graph

Search for Another Location

Airport or City:

Trip Planner

Search our weather history database for the weather conditions in past years. The results will help you decide how hot, cold, wet, or windy it might be!

Date:

Astronomy

Aug. 08, 2013 Rise Set
Actual Time 7:05 AM CDT 8:19 PM CDT
Civil Twilight 6:40 AM CDT 8:44 PM CDT
Nautical Twilight 6:11 AM CDT 9:13 PM CDT
Astronomical Twilight 5:40 AM CDT 9:43 PM CDT
Moon 8:38 AM CDT (8/8) 9:17 PM CDT (8/8)
Length of Visible Light 14h 03m
Length of Day
13h 14m
Waxing Crescent, 3% of the Moon is Illuminated
Aug 8
Waxing Crescent
Aug 14
First Quarter
Aug 20
Full
Aug 28
Last Quarter
Sep 5
New

Hourly Weather History & Observations

Time (CDT) Temp. Heat Index Dew Point Humidity Pressure Visibility Wind Dir Wind Speed Gust Speed Precip Events Conditions
12:15 AM 84.2 °F 88.4 °F 69.8 °F 62% 29.87 in 7.0 mi SE 17.3 mph 26.5 mph N/A   Clear
12:35 AM 83.5 °F 87.7 °F 70.0 °F 64% 29.87 in 7.0 mi SE 11.5 mph 18.4 mph N/A   Clear
12:55 AM 82.9 °F 87.0 °F 70.2 °F 65% 29.87 in 7.0 mi SE 10.4 mph 16.1 mph N/A   Clear
1:15 AM 82.6 °F 86.6 °F 70.3 °F 66% 29.87 in 7.0 mi SE 8.1 mph - N/A   Clear
1:35 AM 82.4 °F 86.7 °F 70.7 °F 68% 29.87 in 7.0 mi SE 13.8 mph 18.4 mph N/A   Scattered Clouds
1:55 AM 81.9 °F 86.0 °F 70.7 °F 69% 29.86 in 7.0 mi SE 10.4 mph 16.1 mph N/A   Clear
2:15 AM 81.7 °F 85.8 °F 70.9 °F 70% 29.86 in 7.0 mi SE 10.4 mph 17.3 mph N/A   Clear
2:35 AM 81.5 °F 85.5 °F 70.7 °F 70% 29.86 in 7.0 mi SE 9.2 mph - N/A   Clear
2:55 AM 81.3 °F 85.2 °F 70.7 °F 70% 29.85 in 7.0 mi SE 8.1 mph - N/A   Clear
3:15 AM 81.1 °F 84.9 °F 70.3 °F 70% 29.85 in 7.0 mi ESE 8.1 mph 17.3 mph N/A   Scattered Clouds
3:35 AM 81.0 °F 84.6 °F 70.5 °F 70% 29.84 in 7.0 mi SE 12.7 mph 17.3 mph N/A   Scattered Clouds
3:55 AM 80.8 °F 84.4 °F 70.7 °F 71% 29.84 in 7.0 mi SE 9.2 mph - N/A   Scattered Clouds
4:15 AM 80.6 °F 84.2 °F 70.7 °F 72% 29.83 in 7.0 mi SE 6.9 mph 17.3 mph N/A   Scattered Clouds
4:35 AM 80.6 °F 84.2 °F 70.9 °F 72% 29.83 in 7.0 mi SE 10.4 mph - N/A   Scattered Clouds
4:55 AM 80.6 °F 84.2 °F 70.7 °F 72% 29.83 in 7.0 mi SE 11.5 mph 17.3 mph N/A   Scattered Clouds
5:15 AM 80.2 °F 83.7 °F 70.9 °F 73% 29.82 in 7.0 mi SE 10.4 mph - N/A   Scattered Clouds
5:35 AM 80.2 °F 83.7 °F 70.9 °F 73% 29.82 in 7.0 mi SE 9.2 mph - N/A   Scattered Clouds
5:55 AM 80.1 °F 83.4 °F 70.9 °F 73% 29.83 in 7.0 mi SE 9.2 mph - N/A   Scattered Clouds
6:15 AM 79.9 °F - 70.9 °F 74% 29.83 in 7.0 mi SE 10.4 mph - N/A   Scattered Clouds
6:35 AM 79.7 °F - 70.9 °F 74% 29.83 in 7.0 mi SSE 9.2 mph - N/A   Scattered Clouds
6:55 AM 79.7 °F - 70.9 °F 74% 29.84 in 7.0 mi SE 8.1 mph - N/A   Scattered Clouds
7:15 AM 79.7 °F - 71.1 °F 75% 29.84 in 5.0 mi SE 8.1 mph - N/A   Haze
7:35 AM 79.7 °F - 71.1 °F 75% 29.84 in 5.0 mi SE 6.9 mph - N/A   Haze
7:55 AM 80.2 °F 83.9 °F 71.2 °F 74% 29.85 in 5.0 mi SSE 9.2 mph - N/A   Haze
8:15 AM 81.1 °F 85.0 °F 70.9 °F 71% 29.85 in 5.0 mi SSE 8.1 mph - N/A   Haze
8:35 AM 82.0 °F 86.1 °F 70.7 °F 68% 29.85 in 5.0 mi SSE 12.7 mph 16.1 mph N/A   Haze
8:55 AM 83.3 °F 87.9 °F 70.7 °F 66% 29.86 in 7.0 mi SSE 12.7 mph 19.6 mph N/A   Scattered Clouds
9:15 AM 84.2 °F 88.7 °F 70.3 °F 63% 29.86 in 7.0 mi SSE 12.7 mph 18.4 mph N/A   Scattered Clouds
9:35 AM 85.6 °F 90.1 °F 69.8 °F 59% 29.86 in 7.0 mi SE 12.7 mph 17.3 mph N/A   Scattered Clouds
9:55 AM 86.4 °F 90.4 °F 69.1 °F 56% 29.86 in 7.0 mi South 12.7 mph 18.4 mph N/A   Scattered Clouds
10:35 AM 88.9 °F 92.6 °F 68.2 °F 50% 29.87 in 7.0 mi SSE 10.4 mph - N/A   Clear
10:55 AM 89.8 °F 93.3 °F 67.8 °F 48% 29.87 in 7.0 mi South 9.2 mph 17.3 mph N/A   Clear
11:15 AM 91.8 °F 95.1 °F 67.1 °F 44% 29.87 in 7.0 mi South 11.5 mph - N/A   Clear
11:35 AM 92.5 °F 95.4 °F 66.4 °F 42% 29.87 in 7.0 mi SSE 11.5 mph 16.1 mph N/A   Clear
11:55 AM 92.8 °F 95.6 °F 65.8 °F 41% 29.86 in 7.0 mi SE 9.2 mph - N/A   Clear
12:15 PM 94.1 °F 96.4 °F 65.1 °F 38% 29.86 in 7.0 mi SSE 9.2 mph - N/A   Clear
12:35 PM 96.1 °F 97.8 °F 63.3 °F 34% 29.85 in 7.0 mi Calm Calm - N/A   Clear
12:55 PM 97.7 °F 98.5 °F 61.7 °F 30% 29.84 in 7.0 mi SE 6.9 mph - N/A   Clear
1:15 PM 99.5 °F 100.4 °F 60.8 °F 28% 29.84 in 7.0 mi SE 6.9 mph - N/A   Clear
1:35 PM 100.0 °F 100.7 °F 60.1 °F 27% 29.83 in 7.0 mi South 8.1 mph - N/A   Clear
1:55 PM 100.2 °F 100.5 °F 59.5 °F 26% 29.82 in 7.0 mi Calm Calm - N/A   Clear
2:15 PM 102.4 °F 101.6 °F 57.2 °F 22% 29.82 in 7.0 mi South 8.1 mph - N/A   Clear
2:35 PM 103.6 °F - 52.9 °F 18% 29.81 in 7.0 mi ESE 8.1 mph - N/A   Clear
2:55 PM 103.1 °F 102.1 °F 55.9 °F 21% 29.80 in 7.0 mi SSE 8.1 mph - N/A   Clear
3:15 PM 103.8 °F - 52.9 °F 18% 29.79 in 7.0 mi SSE 11.5 mph 20.7 mph N/A   Clear
4:15 PM 106.2 °F - 47.5 °F 14% 29.77 in 7.0 mi SE 5.8 mph 17.3 mph N/A   Clear
4:35 PM 105.8 °F - 46.6 °F 14% 29.76 in 7.0 mi SSE 16.1 mph 19.6 mph N/A   Clear
4:55 PM 105.8 °F - 50.4 °F 16% 29.75 in 7.0 mi SSE 12.7 mph 19.6 mph N/A   Clear
5:15 PM 105.6 °F - 47.7 °F 14% 29.75 in 7.0 mi SE 12.7 mph 19.6 mph N/A   Clear
5:35 PM 106.2 °F - 47.5 °F 14% 29.74 in 7.0 mi SSE 12.7 mph 18.4 mph N/A   Clear
5:55 PM 106.0 °F - 47.1 °F 14% 29.74 in 7.0 mi SE 12.7 mph 19.6 mph N/A   Clear
6:15 PM 106.3 °F - 47.3 °F 14% 29.74 in 7.0 mi SE 16.1 mph - N/A   Clear
6:35 PM 105.1 °F - 44.1 °F 13% 29.73 in 7.0 mi ESE 11.5 mph 18.4 mph N/A   Clear
6:55 PM 104.0 °F - 48.4 °F 15% 29.73 in 7.0 mi SE 12.7 mph 21.9 mph N/A   Clear
7:15 PM 103.1 °F - 48.4 °F 16% 29.74 in 7.0 mi ESE 11.5 mph 17.3 mph N/A   Clear
7:35 PM 102.0 °F - 49.6 °F 17% 29.74 in 7.0 mi ESE 13.8 mph 21.9 mph N/A   Clear
7:55 PM 99.9 °F 98.1 °F 54.5 °F 22% 29.74 in 7.0 mi ESE 15.0 mph 23.0 mph N/A   Clear
8:15 PM 98.4 °F 96.2 °F 53.2 °F 22% 29.75 in 7.0 mi ESE 17.3 mph 24.2 mph N/A   Clear
8:35 PM 96.8 °F 94.7 °F 54.7 °F 24% 29.77 in 7.0 mi ESE 13.8 mph 23.0 mph N/A   Clear
8:55 PM 95.4 °F 93.5 °F 55.6 °F 26% 29.78 in 7.0 mi ESE 12.7 mph 21.9 mph N/A   Clear
9:15 PM 94.3 °F 92.4 °F 55.0 °F 27% 29.79 in 7.0 mi ESE 17.3 mph 25.3 mph N/A   Clear
9:35 PM 93.0 °F 91.4 °F 56.5 °F 29% 29.80 in 10.0 mi ESE 12.7 mph 24.2 mph N/A   Clear
9:55 PM 91.6 °F 90.7 °F 58.8 °F 33% 29.81 in 10.0 mi SE 12.7 mph 20.7 mph N/A   Clear
10:15 PM 90.5 °F 90.4 °F 60.8 °F 37% 29.81 in 7.0 mi SE 12.7 mph 24.2 mph N/A   Clear
10:35 PM 89.6 °F 89.8 °F 61.7 °F 39% 29.83 in 7.0 mi SE 17.3 mph 25.3 mph N/A   Clear
10:55 PM 88.2 °F 89.3 °F 63.9 °F 44% 29.84 in 7.0 mi SE 12.7 mph 25.3 mph N/A   Clear
11:15 PM 87.1 °F 88.9 °F 65.3 °F 48% 29.85 in 7.0 mi SE 15.0 mph 24.2 mph N/A   Clear
11:35 PM 86.2 °F 88.4 °F 66.0 °F 51% 29.86 in 7.0 mi SE 15.0 mph 26.5 mph N/A   Clear
11:55 PM 85.1 °F 87.9 °F 67.1 °F 55% 29.87 in 7.0 mi SE 8.1 mph 18.4 mph N/A   Clear